Other Public Products
Issued by NWS Grand Forks, ND

Home | Current Version | Previous Version | Graphics & Text | Print | Product List | Glossary On
Versions: 1 2 3 4 5 6 7 8 9 10 11 12 13 14 15 16 17 18 19 20 21 22 23 24 25 26 27 28 29 30 31 32 33 34 35 36 37 38 39 40 41 42 43 44 45 46 47 48 49 50
000
FPUS83 KFGF 011731
OPUFGF
PRAIRIE TO PINES WEATHER ROUNDUP
NATIONAL WEATHER SERVICE EASTERN NORTH DAKOTA/GRAND FORKS ND
1200 PM CDT TUE SEP 01 2015

 **SATELLITE DATA USED TO AUGMENT SKY COVER AT AUTOMATED STATIONS**
 *****  WEATHER ACROSS EASTERN NORTH DAKOTA  *****

CITY           SKY/WX    TMP DP  RH WIND       PRES   REMARKS
GRAND FORKS    MOSUNNY   80  55  42 SW10      29.85F
GRAND FORKS AF SUNNY     82  55  39 SW9       29.86S
GRAND CITY NWS   N/A     79 N/A N/A SW7         N/A
BUXTON         NOT AVBL
DEVILS LAKE    SUNNY     79  55  44 SW8       29.86S
FARGO          SUNNY     82  56  40 SE7       29.87S
WAHPETON ARPT  SUNNY     82  50  32 SE13      29.88S
$$

 *****  WEATHER ACROSS CENTRAL AND WESTERN NORTH DAKOTA  *****

CITY           SKY/WX    TMP DP  RH WIND       PRES   REMARKS
JAMESTOWN      SUNNY     80  58  46 S13       29.88S
BISMARCK       SUNNY     79  60  52 S13       29.86F
MINOT          SUNNY     80  55  42 SW12      29.83S
MINOT AFB      SUNNY     82  58  42 SW10G18   29.81S
GARRISON         N/A     76  57  51 VRB5      29.85S
WILLISTON      SUNNY     77  56  48 S5        29.81F
DICKINSON      SUNNY     80  58  46 SE13      29.84F
HETTINGER      SUNNY     78  60  53 SE12G21   29.87S
$$

 *****  OTHER OBSERVATIONS NORTHEAST NORTH DAKOTA  *****

CITY           SKY/WX    TMP DP  RH WIND       PRES   REMARKS
WALHALLA       FAIR      82  57  42 MISG      29.82F
LANGDON        FAIR      84  55  37 SW17G25   29.86S
CAVALIER       FAIR      82  57  42 SW9G16    29.83S
GRAFTON        FAIR      81  57  44 SW14      29.85F
CANDO          FAIR      82  55  39 W12G17    29.85F
FORT TOTTEN      N/A     80  59  48 SW7       29.95S
ROLLA            N/A     77  50  38 SW10      29.86F
RUGBY          FAIR      81  57  44 SW13      29.84F
 ***** THE ABOVE OBSERVATIONS ARE NON NWS ARE NOT QUALITY
        CONTROLLED AND MAY MIS-REPORT RAIN FOR SNOW...
$$

 *****  OTHER OBSERVATIONS SOUTHEAST NORTH DAKOTA *****

CITY           SKY/WX    TMP DP  RH WIND       PRES   REMARKS
COOPERSTOWN    NOT AVBL
VALLEY CITY    FAIR      81  57  44 SE9       29.89S
OAKES            N/A     84  75  74 SE13G18   29.87F HX  92
GWINNER        FAIR      82  64  54 SE10      29.88S
SHEYENNE NWR     N/A     81  62  52 SE8       29.95S
BUFFALO        NOT AVBL
WYNDMERE         N/A     84  61  45 SE9         N/A
 ***** THE ABOVE OBSERVATIONS ARE NON NWS ARE NOT QUALITY
       CONTROLLED AND MAY MIS-REPORT RAIN FOR SNOW...
$$

  *****  WEATHER ACROSS NORTHERN MINNESOTA  *****

CITY           SKY/WX    TMP DP  RH WIND       PRES   REMARKS
FLAG ISLAND    SUNNY     75  48  38 SW9       29.86S
WARROAD        SUNNY     77  57  50 S7        29.88F
ROSEAU         SUNNY     81  54  39 SW9G16    29.87F
HALLOCK        SUNNY     81  54  39 S13       29.84S
THF RVR FALLS  SUNNY     79  54  41 S8        29.88F
HALSTAD        NOT AVBL
FOSSTON        SUNNY     81  48  32 S6        29.90F
BAUDETTE       SUNNY     79  54  41 S6        29.89R
WASKISH        SUNNY     75  63  64 W5        29.91S
CROOKSTON      SUNNY     81  55  41 SW9       29.88S
$$
  *****  WEATHER ACROSS CENTRAL AND WEST MINNESOTA  *****

CITY           SKY/WX    TMP DP  RH WIND       PRES   REMARKS
BEMIDJI        SUNNY     78  53  41 S6        29.91F
PARK RAPIDS    SUNNY     80  56  43 VRB5      29.92F
WADENA         SUNNY     81  55  41 E6        29.91S
DETROIT LAKES  SUNNY     79  50  36 SE8       29.92S
MOORHEAD       SUNNY     82  54  36 S8        29.88S
FERGUS FALLS   SUNNY     82  54  36 SE9       29.88S
ELBOW LAKE     FAIR      81  63  53 SE8       29.89S
MORRIS MN      MOSUNNY   82  68  61 E9        29.88F
STAPLES        SUNNY     81  52  36 SE5       29.91S
WHEATON        SUNNY     81  64  57 E8        29.89F
$$
  *****  WEATHER ELSEWHERE ACROSS MINNESOTA  *****

CITY           SKY/WX    TMP DP  RH WIND       PRES   REMARKS
DULUTH         CLOUDY    77  68  73 VRB7      29.92S
INTRNTL FALLS  PTSUNNY   75  55  49 SW6       29.91R
ELY            CLOUDY    73  55  53 W6        29.93S
CLOQUET        PTSUNNY   79  66  65 S5        29.92F
BRAINERD       MOSUNNY   80  62  54 VRB3      29.92S
HIBBING        CLOUDY    75  57  53 VRB3      29.93S
ALEXANDRIA     SUNNY     80  67  64 E9        29.92F
SAINT CLOUD    CLOUDY    77  70  79 E6        29.90F
MINNEAPOLIS    PTSUNNY   82  70  66 S6        29.91F
$$

  *****  WEATHER ACROSS SOUTH DAKOTA  *****

CITY           SKY/WX    TMP DP  RH WIND       PRES   REMARKS
SIOUX FALLS    CLOUDY    76  69  79 NW6       29.92R
BROOKINGS      CLOUDY    70  66  88 N3        29.95F
WATERTOWN      PTSUNNY   77  70  79 S12       29.92R
HURON          CLOUDY    72  68  87 SE5       29.86F
SISSETON         N/A     81  66  60 S10       29.87S
ABERDEEN       SUNNY     81  67  62 S14       29.88S
MITCHELL       CLOUDY    72  70  93 E6        29.88F
PIERRE         SUNNY     82  68  62 S9        29.83F
MOBRIDGE       SUNNY     81  66  60 SE15      29.84S
RAPID CITY     SUNNY     76  60  57 VRB5      29.89R
$$

  *****  SOME WEATHER IN NEARBY STATES *****

CITY           SKY/WX    TMP DP  RH WIND       PRES   REMARKS
GLASGOW MT     SUNNY     71  48  43 CALM      29.79R
GREAT FALLS MT PTSUNNY   75  38  26 SW22G33   29.85S
CHEYENNE WY    SUNNY     81  41  24 W16       30.15S
SCOTTSBLUFF NE SUNNY     80  53  39 W7        30.00S
OMAHA NE       PTSUNNY   82  68  62 S10       29.95S
DES MOINES IA  MOSUNNY   86  69  56 SW13      29.97S HX  90
DAVENPORT IA   SUNNY     85  72  65 SW10      30.02F HX  91
CHICAGO IL     MOSUNNY   85  73  67 S7        30.04F HX  91
EAU CLAIRE WI  MOSUNNY   81  69  67 S6        29.93F
LA CROSSE WI   SUNNY     84  71  65 S13       29.94F
$$

  *****  SOME NATIONAL WEATHER *****

CITY           SKY/WX    TMP DP  RH WIND       PRES   REMARKS
LA GUARDIA NY  MOSUNNY   86  61  42 NE9       30.04F
RALEIGH NC     MOSUNNY   87  67  51 CALM      30.09F HX  90
ATLANTA GA     PTSUNNY   85  66  53 W6        30.13F
NEW ORLEANS LA PTSUNNY   89  67  47 S8        30.08F HX  92
OKLAHOMA CITY  SUNNY     86  68  54 SW13      30.04F
ALBUQUERQUE NM MOSUNNY   80  47  31 W3        30.22R
SALT LAKE CITY MOSUNNY   83  47  28 S15G22    30.00R
LOS ANGELES CA PTSUNNY   73  59  61 SE7       29.94R
BOISE ID       SUNNY     73  39  29 CALM      29.93S
SEATTLE WA     LGT RAIN  59  57  94 SW9       29.87R FOG
$$

*** WEATHER ACROSS MANITOBA...SASKATCHEWAN AND ONTARIO ***
                ***ONTARIO***

CITY           SKY/WX    TMP DP  RH WIND       PRES   REMARKS
GERALDTON      PTSUNNY   77  61  57 W10       29.86F
THUNDER BAY    PTSUNNY   77  66  69 SW5       29.87F
SIOUX LOOKOUT  MOSUNNY   75  52  43 W9G17     29.86F
TORONTO        SUNNY     79  66  65 SE8       30.06F
BIG TROUT LK   SUNNY     66  59  77 NW7       29.72S
PICKLE LAKE    MOSUNNY   77  52  41 SW12G18   29.80S
DRYDEN         SUNNY     75  50  41 SW13      29.87F
KENORA         MOSUNNY   73  52  46 SW9       29.88R
$$
                *** MANITOBA***

CITY           SKY/WX    TMP DP  RH WIND       PRES   REMARKS
BRANDON        MOSUNNY   75  48  38 W5        29.81F
DAUPHIN        SUNNY     77  50  38 W10G17    29.75S
ISLAND LAKE    MOSUNNY   68  61  77 VRB2      29.72R
PILOT MOUND      N/A     79  45  29 SW9         N/A
THE PAS        CLOUDY    66  57  72 E6        29.66F
THOMPSON       CLOUDY    57  55  94 VRB2      29.72R FOG
WINNIPEG       MOSUNNY   77  52  41 S9        29.82S
CHURCHILL      CLOUDY    48  45  87 SE10G17   29.76R
GILLAM         CLOUDY    50  46  87 E5        29.75R
$$
                ***SASKATCHEWAN***

CITY           SKY/WX    TMP DP  RH WIND       PRES   REMARKS
ESTEVAN        MOSUNNY   81  52  36 SW13      29.79F
KINDERSLEY     MOSUNNY   72  41  33 W22G30    29.64R
LLOYDMINSTER   MOSUNNY   68  43  40 W16       29.55
PRINCE ALBERT  MOSUNNY   68  48  49 SW10G18   29.58F
REGINA         PTSUNNY   73  48  40 S13       29.74F
YORKTON        SUNNY     72  50  46 SW13      29.74S



USA.gov is the U.S. government's official web portal to all federal, state and local government web resources and services.